Time,TemperatureF,DewpointF,PressureIn,WindDirection,WindDirectionDegrees,WindSpeedMPH,WindSpeedGustMPH,Humidity,HourlyPrecipIn,Conditions,Clouds,dailyrainin,SolarRadiationWatts/m^2,SoftwareType,DateUTC
2013-06-29 00:00:00,69.3,60.0,29.76,South,179,0.0,0.0,72,0.00,,,0.00,0,Custom,2013-06-29 05:00:00,
2013-06-29 00:05:00,69.3,60.0,29.76,South,179,0.0,0.0,72,0.00,,,0.00,0,Custom,2013-06-29 05:05:00,
2013-06-29 00:10:00,69.4,60.0,29.76,South,179,0.0,0.0,71,0.00,,,0.00,0,Custom,2013-06-29 05:10:00,
2013-06-29 00:15:00,69.6,60.0,29.76,South,179,0.0,0.0,71,0.00,,,0.00,0,Custom,2013-06-29 05:15:00,
2013-06-29 00:20:00,69.5,60.0,29.76,South,179,0.0,0.0,71,0.00,,,0.00,0,Custom,2013-06-29 05:20:00,
2013-06-29 00:25:00,69.4,60.0,29.76,South,179,0.0,0.0,71,0.00,,,0.00,0,Custom,2013-06-29 05:25:00,
2013-06-29 00:30:00,69.5,60.0,29.76,South,179,0.0,0.0,71,0.00,,,0.00,0,Custom,2013-06-29 05:30:00,
2013-06-29 00:35:00,69.3,60.0,29.76,South,179,0.0,0.0,72,0.00,,,0.00,0,Custom,2013-06-29 05:35:00,
2013-06-29 00:40:00,69.3,60.0,29.76,South,179,0.0,0.0,72,0.00,,,0.00,0,Custom,2013-06-29 05:40:00,
2013-06-29 00:45:00,69.6,60.0,29.75,South,179,0.0,0.0,72,0.00,,,0.00,0,Custom,2013-06-29 05:45:00,
2013-06-29 00:50:00,69.7,60.0,29.75,South,179,0.0,0.0,71,0.00,,,0.00,0,Custom,2013-06-29 05:50:00,
2013-06-29 00:55:00,70.1,60.0,29.75,South,179,0.0,2.0,70,0.00,,,0.00,0,Custom,2013-06-29 05:55:00,
2013-06-29 01:00:00,70.0,60.0,29.75,South,179,0.0,1.0,70,0.00,,,0.00,0,Custom,2013-06-29 06:00:00,
2013-06-29 01:05:00,69.8,60.0,29.75,South,179,0.0,0.0,71,0.00,,,0.00,0,Custom,2013-06-29 06:05:00,
2013-06-29 01:10:00,69.8,60.0,29.75,South,179,0.0,0.0,71,0.00,,,0.00,0,Custom,2013-06-29 06:10:00,
2013-06-29 01:15:00,69.8,60.0,29.75,South,180,0.0,0.0,71,0.00,,,0.00,0,Custom,2013-06-29 06:15:00,
2013-06-29 01:20:00,69.6,60.0,29.75,South,180,0.0,0.0,71,0.00,,,0.00,0,Custom,2013-06-29 06:20:00,
2013-06-29 01:25:00,69.5,60.0,29.75,South,180,0.0,0.0,72,0.00,,,0.00,0,Custom,2013-06-29 06:25:00,
2013-06-29 01:30:00,69.3,60.0,29.75,South,180,0.0,0.0,72,0.00,,,0.00,0,Custom,2013-06-29 06:30:00,
2013-06-29 01:35:00,69.2,60.0,29.75,South,180,0.0,0.0,72,0.00,,,0.00,0,Custom,2013-06-29 06:35:00,
2013-06-29 01:40:00,69.0,59.0,29.75,South,180,0.0,0.0,72,0.00,,,0.00,0,Custom,2013-06-29 06:40:00,
2013-06-29 01:45:00,69.0,60.0,29.75,South,180,0.0,0.0,72,0.00,,,0.00,0,Custom,2013-06-29 06:45:00,
2013-06-29 01:50:00,68.7,59.0,29.75,South,180,0.0,0.0,72,0.00,,,0.00,0,Custom,2013-06-29 06:50:00,
2013-06-29 01:55:00,68.6,60.0,29.75,South,180,0.0,0.0,73,0.00,,,0.00,0,Custom,2013-06-29 06:55:00,
2013-06-29 02:00:00,68.5,59.0,29.75,South,180,0.0,0.0,72,0.00,,,0.00,0,Custom,2013-06-29 07:00:00,
2013-06-29 02:05:00,68.3,59.0,29.75,South,180,0.0,0.0,73,0.00,,,0.00,0,Custom,2013-06-29 07:05:00,
2013-06-29 02:10:00,68.3,59.0,29.75,South,180,0.0,0.0,73,0.00,,,0.00,0,Custom,2013-06-29 07:10:00,
2013-06-29 02:15:00,68.1,59.0,29.75,South,180,0.0,0.0,73,0.00,,,0.00,0,Custom,2013-06-29 07:15:00,
2013-06-29 02:20:00,67.8,59.0,29.75,South,180,0.0,0.0,74,0.00,,,0.00,0,Custom,2013-06-29 07:20:00,
2013-06-29 02:25:00,67.5,59.0,29.75,South,180,0.0,0.0,75,0.00,,,0.00,0,Custom,2013-06-29 07:25:00,
2013-06-29 02:30:00,67.2,59.0,29.75,South,180,0.0,0.0,75,0.00,,,0.00,0,Custom,2013-06-29 07:30:00,
2013-06-29 02:35:00,66.8,59.0,29.75,South,180,0.0,0.0,76,0.00,,,0.00,0,Custom,2013-06-29 07:35:00,
2013-06-29 02:40:00,66.5,59.0,29.75,South,180,0.0,0.0,76,0.00,,,0.00,0,Custom,2013-06-29 07:40:00,
2013-06-29 02:45:00,66.1,59.0,29.75,South,180,0.0,0.0,77,0.00,,,0.00,0,Custom,2013-06-29 07:45:00,
2013-06-29 02:50:00,65.9,59.0,29.75,South,180,0.0,0.0,78,0.00,,,0.00,0,Custom,2013-06-29 07:50:00,
2013-06-29 02:55:00,65.7,58.0,29.75,South,180,0.0,0.0,78,0.00,,,0.00,0,Custom,2013-06-29 07:55:00,
2013-06-29 03:00:00,65.5,59.0,29.75,South,180,0.0,0.0,79,0.00,,,0.00,0,Custom,2013-06-29 08:00:00,
2013-06-29 03:05:00,65.6,59.0,29.75,South,180,0.0,0.0,79,0.00,,,0.00,0,Custom,2013-06-29 08:05:00,
2013-06-29 03:10:00,65.4,59.0,29.75,South,180,0.0,0.0,79,0.00,,,0.00,0,Custom,2013-06-29 08:10:00,
2013-06-29 03:15:00,65.3,59.0,29.75,South,180,0.0,0.0,79,0.00,,,0.00,0,Custom,2013-06-29 08:15:00,
2013-06-29 03:20:00,65.5,59.0,29.75,South,180,0.0,0.0,79,0.00,,,0.00,0,Custom,2013-06-29 08:20:00,
2013-06-29 03:25:00,65.4,59.0,29.75,South,180,0.0,0.0,79,0.00,,,0.00,0,Custom,2013-06-29 08:25:00,
2013-06-29 03:30:00,65.4,59.0,29.75,South,180,0.0,0.0,79,0.00,,,0.00,0,Custom,2013-06-29 08:30:00,
2013-06-29 03:35:00,65.4,59.0,29.75,South,180,0.0,0.0,79,0.00,,,0.00,0,Custom,2013-06-29 08:35:00,
2013-06-29 03:40:00,65.4,59.0,29.76,South,180,0.0,0.0,79,0.00,,,0.00,0,Custom,2013-06-29 08:40:00,
2013-06-29 03:45:00,65.1,58.0,29.76,South,180,0.0,0.0,79,0.00,,,0.00,0,Custom,2013-06-29 08:45:00,
2013-06-29 03:50:00,65.1,59.0,29.75,South,180,0.0,0.0,79,0.00,,,0.00,0,Custom,2013-06-29 08:50:00,
2013-06-29 03:55:00,65.0,59.0,29.76,South,180,0.0,0.0,80,0.00,,,0.00,0,Custom,2013-06-29 08:55:00,
2013-06-29 04:00:00,64.7,58.0,29.76,South,180,0.0,0.0,80,0.00,,,0.00,0,Custom,2013-06-29 09:00:00,
2013-06-29 04:05:00,64.6,58.0,29.76,South,180,0.0,0.0,79,0.00,,,0.00,0,Custom,2013-06-29 09:05:00,
2013-06-29 04:10:00,64.5,58.0,29.76,South,180,0.0,0.0,79,0.00,,,0.00,0,Custom,2013-06-29 09:10:00,
2013-06-29 04:15:00,64.6,58.0,29.76,South,180,0.0,0.0,79,0.00,,,0.00,0,Custom,2013-06-29 09:15:00,
2013-06-29 04:20:00,64.7,58.0,29.76,South,180,0.0,0.0,79,0.00,,,0.00,0,Custom,2013-06-29 09:20:00,
2013-06-29 04:25:00,64.9,58.0,29.76,South,180,0.0,0.0,80,0.00,,,0.00,0,Custom,2013-06-29 09:25:00,
2013-06-29 04:30:00,64.8,58.0,29.76,South,180,0.0,0.0,79,0.00,,,0.00,0,Custom,2013-06-29 09:30:00,
2013-06-29 04:35:00,64.5,58.0,29.76,South,180,0.0,0.0,80,0.00,,,0.00,0,Custom,2013-06-29 09:35:00,
2013-06-29 04:40:00,64.8,58.0,29.76,South,180,0.0,1.0,80,0.00,,,0.00,0,Custom,2013-06-29 09:40:00,
2013-06-29 04:45:00,64.8,58.0,29.76,South,180,0.0,0.0,80,0.00,,,0.00,0,Custom,2013-06-29 09:45:00,
2013-06-29 04:50:00,64.7,58.0,29.76,South,180,0.0,0.0,80,0.00,,,0.00,0,Custom,2013-06-29 09:50:00,
2013-06-29 04:55:00,64.5,58.0,29.76,South,180,0.0,0.0,80,0.00,,,0.00,0,Custom,2013-06-29 09:55:00,
2013-06-29 05:00:00,64.4,58.0,29.76,South,180,0.0,0.0,80,0.00,,,0.00,0,Custom,2013-06-29 10:00:00,
2013-06-29 05:05:00,64.2,58.0,29.76,South,180,0.0,0.0,79,0.00,,,0.00,0,Custom,2013-06-29 10:05:00,
2013-06-29 05:10:00,64.2,58.0,29.76,South,180,0.0,0.0,80,0.00,,,0.00,0,Custom,2013-06-29 10:10:00,
2013-06-29 05:15:00,64.1,58.0,29.76,South,180,0.0,0.0,80,0.00,,,0.00,0,Custom,2013-06-29 10:15:00,
2013-06-29 05:20:00,64.0,58.0,29.76,South,180,0.0,0.0,81,0.00,,,0.00,0,Custom,2013-06-29 10:20:00,
2013-06-29 05:25:00,63.9,58.0,29.76,South,180,0.0,0.0,81,0.00,,,0.00,0,Custom,2013-06-29 10:25:00,
2013-06-29 05:30:00,63.4,58.0,29.76,SW,223,0.0,0.0,81,0.00,,,0.00,0,Custom,2013-06-29 10:30:00,
2013-06-29 05:35:00,63.0,58.0,29.76,SW,223,0.0,0.0,82,0.00,,,0.00,0,Custom,2013-06-29 10:35:00,
2013-06-29 05:40:00,62.9,58.0,29.76,SW,223,0.0,0.0,82,0.00,,,0.00,0,Custom,2013-06-29 10:40:00,
2013-06-29 05:45:00,63.2,58.0,29.76,SW,223,0.0,0.0,82,0.00,,,0.00,0,Custom,2013-06-29 10:45:00,
2013-06-29 05:50:00,62.9,58.0,29.76,SW,223,0.0,0.0,83,0.00,,,0.00,0,Custom,2013-06-29 10:50:00,
2013-06-29 05:55:00,62.6,57.0,29.76,SW,223,0.0,0.0,83,0.00,,,0.00,0,Custom,2013-06-29 10:55:00,
2013-06-29 06:00:00,62.5,57.0,29.76,SW,223,0.0,0.0,83,0.00,,,0.00,0,Custom,2013-06-29 11:00:00,
2013-06-29 06:05:00,62.3,57.0,29.76,SW,223,0.0,0.0,84,0.00,,,0.00,0,Custom,2013-06-29 11:05:00,
2013-06-29 06:10:00,62.3,57.0,29.76,SW,223,0.0,0.0,84,0.00,,,0.00,7.8,Custom,2013-06-29 11:10:00,
2013-06-29 06:15:00,62.3,58.0,29.76,SW,223,0.0,0.0,84,0.00,,,0.00,8.97,Custom,2013-06-29 11:15:00,
2013-06-29 06:20:00,62.3,57.0,29.76,SW,223,0.0,0.0,84,0.00,,,0.00,12.48,Custom,2013-06-29 11:20:00,
2013-06-29 06:25:00,62.6,58.0,29.76,SW,223,0.0,0.0,84,0.00,,,0.00,13.26,Custom,2013-06-29 11:25:00,
2013-06-29 06:30:00,62.6,58.0,29.76,SW,223,0.0,0.0,84,0.00,,,0.00,14.82,Custom,2013-06-29 11:30:00,
2013-06-29 06:35:00,63.0,58.0,29.77,SW,223,0.0,0.0,83,0.00,,,0.00,16.77,Custom,2013-06-29 11:35:00,
2013-06-29 06:40:00,63.4,58.0,29.77,SW,223,0.0,0.0,83,0.00,,,0.00,17.94,Custom,2013-06-29 11:40:00,
2013-06-29 06:45:00,63.4,58.0,29.77,SW,223,0.0,0.0,82,0.00,,,0.00,19.5,Custom,2013-06-29 11:45:00,
2013-06-29 06:50:00,64.5,59.0,29.77,SW,223,0.0,0.0,81,0.00,,,0.00,21.06,Custom,2013-06-29 11:50:00,
2013-06-29 06:55:00,64.9,58.0,29.77,SW,223,0.0,0.0,80,0.00,,,0.00,22.23,Custom,2013-06-29 11:55:00,
2013-06-29 07:00:00,65.4,59.0,29.77,SW,223,0.0,1.0,79,0.00,,,0.00,23.4,Custom,2013-06-29 12:00:00,
2013-06-29 07:05:00,66.1,59.0,29.76,SW,223,0.0,1.0,77,0.00,,,0.00,27.69,Custom,2013-06-29 12:05:00,
2013-06-29 07:10:00,66.5,59.0,29.76,SW,223,0.0,1.0,76,0.00,,,0.00,26.52,Custom,2013-06-29 12:10:00,
2013-06-29 07:15:00,67.0,59.0,29.76,SW,216,0.0,1.0,75,0.00,,,0.00,28.47,Custom,2013-06-29 12:15:00,
2013-06-29 07:20:00,68.3,59.0,29.76,SW,215,0.0,0.0,72,0.00,,,0.00,108.42,Custom,2013-06-29 12:20:00,
2013-06-29 07:25:00,69.7,58.0,29.76,SW,218,0.0,0.0,67,0.00,,,0.00,125.97,Custom,2013-06-29 12:25:00,
2013-06-29 07:30:00,70.7,58.0,29.76,SSE,157,0.0,1.0,64,0.00,,,0.00,144.3,Custom,2013-06-29 12:30:00,
2013-06-29 07:35:00,71.4,58.0,29.76,SSW,193,0.0,0.0,63,0.00,,,0.00,162.63,Custom,2013-06-29 12:35:00,
2013-06-29 07:40:00,71.4,58.0,29.76,WNW,288,0.0,2.0,62,0.00,,,0.00,183.69,Custom,2013-06-29 12:40:00,
2013-06-29 07:45:00,71.8,58.0,29.76,North,0,0.0,3.0,62,0.00,,,0.00,196.95,Custom,2013-06-29 12:45:00,
2013-06-29 07:50:00,72.4,58.0,29.76,North,0,0.0,0.0,62,0.00,,,0.00,217.23,Custom,2013-06-29 12:50:00,
2013-06-29 07:55:00,72.7,58.0,29.76,North,0,3.0,0.0,60,0.00,,,0.00,237.51,Custom,2013-06-29 12:55:00,
2013-06-29 08:00:00,72.9,59.0,29.76,NNW,340,0.0,3.0,61,0.00,,,0.00,256.62,Custom,2013-06-29 13:00:00,
2013-06-29 08:05:00,73.3,59.0,29.76,North,354,0.0,1.0,60,0.00,,,0.00,276.51,Custom,2013-06-29 13:05:00,
2013-06-29 08:10:00,73.5,59.0,29.76,North,354,0.0,0.0,60,0.00,,,0.00,295.62,Custom,2013-06-29 13:10:00,
2013-06-29 08:15:00,74.3,59.0,29.76,North,11,0.0,1.0,59,0.00,,,0.00,320.58,Custom,2013-06-29 13:15:00,
2013-06-29 08:20:00,74.6,59.0,29.76,North,11,0.0,0.0,58,0.00,,,0.00,338.13,Custom,2013-06-29 13:20:00,
2013-06-29 08:25:00,74.8,59.0,29.76,North,11,0.0,0.0,59,0.00,,,0.00,354.51,Custom,2013-06-29 13:25:00,
2013-06-29 08:30:00,75.2,59.0,29.76,North,10,0.0,0.0,57,0.00,,,0.00,373.23,Custom,2013-06-29 13:30:00,
2013-06-29 08:35:00,75.7,60.0,29.76,North,10,0.0,0.0,58,0.00,,,0.00,388.44,Custom,2013-06-29 13:35:00,
2013-06-29 08:40:00,75.8,59.0,29.76,North,359,0.0,2.0,57,0.00,,,0.00,399.75,Custom,2013-06-29 13:40:00,
2013-06-29 08:45:00,75.9,59.0,29.76,NNE,19,2.0,5.0,55,0.00,,,0.00,416.91,Custom,2013-06-29 13:45:00,
2013-06-29 08:50:00,76.0,60.0,29.77,NNE,18,0.0,5.0,57,0.00,,,0.00,432.12,Custom,2013-06-29 13:50:00,
2013-06-29 08:55:00,77.3,60.0,29.76,NNE,18,0.0,0.0,56,0.00,,,0.00,449.28,Custom,2013-06-29 13:55:00,
2013-06-29 09:00:00,77.7,60.0,29.76,NNE,18,0.0,0.0,55,0.00,,,0.00,467.22,Custom,2013-06-29 14:00:00,
2013-06-29 09:05:00,78.2,59.0,29.76,NNE,18,0.0,1.0,52,0.00,,,0.00,483.21,Custom,2013-06-29 14:05:00,
2013-06-29 09:10:00,77.5,61.0,29.76,North,5,0.0,5.0,56,0.00,,,0.00,500.37,Custom,2013-06-29 14:10:00,
2013-06-29 09:15:00,78.2,61.0,29.76,NNE,33,0.0,3.0,55,0.00,,,0.00,515.58,Custom,2013-06-29 14:15:00,
2013-06-29 09:20:00,78.3,60.0,29.76,NW,311,0.0,0.0,54,0.00,,,0.00,530.79,Custom,2013-06-29 14:20:00,
2013-06-29 09:25:00,79.2,62.0,29.76,NNW,335,0.0,0.0,56,0.00,,,0.00,547.56,Custom,2013-06-29 14:25:00,
2013-06-29 09:30:00,79.1,60.0,29.76,NW,321,0.0,0.0,51,0.00,,,0.00,564.33,Custom,2013-06-29 14:30:00,
2013-06-29 09:35:00,78.8,60.0,29.76,WNW,302,3.0,4.0,52,0.00,,,0.00,579.54,Custom,2013-06-29 14:35:00,
2013-06-29 09:40:00,79.6,61.0,29.76,West,281,0.0,3.0,53,0.00,,,0.00,594.75,Custom,2013-06-29 14:40:00,
2013-06-29 09:45:00,79.8,61.0,29.76,North,10,0.0,2.0,53,0.00,,,0.00,608.4,Custom,2013-06-29 14:45:00,
2013-06-29 09:50:00,80.4,61.0,29.76,NNE,32,0.0,0.0,52,0.00,,,0.00,623.61,Custom,2013-06-29 14:50:00,
2013-06-29 09:55:00,80.1,61.0,29.76,NNW,342,0.0,0.0,52,0.00,,,0.00,641.16,Custom,2013-06-29 14:55:00,
2013-06-29 10:00:00,80.3,61.0,29.76,North,0,0.0,5.0,52,0.00,,,0.00,655.59,Custom,2013-06-29 15:00:00,
2013-06-29 10:05:00,80.8,61.0,29.76,North,0,0.0,0.0,51,0.00,,,0.00,669.24,Custom,2013-06-29 15:05:00,
2013-06-29 10:10:00,81.4,63.0,29.76,North,0,0.0,0.0,54,0.00,,,0.00,682.5,Custom,2013-06-29 15:10:00,
2013-06-29 10:15:00,81.4,61.0,29.76,North,0,0.0,0.0,49,0.00,,,0.00,697.32,Custom,2013-06-29 15:15:00,
2013-06-29 10:20:00,81.8,62.0,29.76,North,1,0.0,0.0,51,0.00,,,0.00,711.75,Custom,2013-06-29 15:20:00,
2013-06-29 10:25:00,81.6,61.0,29.76,North,351,0.0,3.0,50,0.00,,,0.00,723.45,Custom,2013-06-29 15:25:00,
2013-06-29 10:30:00,82.0,61.0,29.76,WNW,294,0.0,2.0,50,0.00,,,0.00,733.2,Custom,2013-06-29 15:30:00,
2013-06-29 10:35:00,81.3,61.0,29.76,NW,321,0.0,2.0,50,0.00,,,0.00,746.07,Custom,2013-06-29 15:35:00,
2013-06-29 10:40:00,81.7,61.0,29.76,North,355,0.0,2.0,49,0.00,,,0.00,748.02,Custom,2013-06-29 15:40:00,
2013-06-29 10:45:00,81.7,62.0,29.76,West,278,0.0,1.0,51,0.00,,,0.00,761.67,Custom,2013-06-29 15:45:00,
2013-06-29 10:50:00,81.9,61.0,29.76,WNW,291,0.0,3.0,49,0.00,,,0.00,767.52,Custom,2013-06-29 15:50:00,
2013-06-29 10:55:00,82.1,61.0,29.76,NW,312,0.0,3.0,49,0.00,,,0.00,768.3,Custom,2013-06-29 15:55:00,
2013-06-29 11:00:00,82.1,61.0,29.76,WNW,290,0.0,1.0,49,0.00,,,0.00,767.52,Custom,2013-06-29 16:00:00,
2013-06-29 11:05:00,82.7,62.0,29.76,NE,51,0.0,2.0,49,0.00,,,0.00,765.18,Custom,2013-06-29 16:05:00,
2013-06-29 11:10:00,82.7,62.0,29.76,North,359,0.0,6.0,50,0.00,,,0.00,779.22,Custom,2013-06-29 16:10:00,
2013-06-29 11:15:00,82.7,61.0,29.75,WNW,289,0.0,5.0,48,0.00,,,0.00,755.43,Custom,2013-06-29 16:15:00,
2013-06-29 11:20:00,82.3,61.0,29.75,North,360,0.0,8.0,48,0.00,,,0.00,742.17,Custom,2013-06-29 16:20:00,
2013-06-29 11:25:00,82.7,61.0,29.76,WNW,288,1.0,6.0,48,0.00,,,0.00,752.7,Custom,2013-06-29 16:25:00,
2013-06-29 11:30:00,83.1,61.0,29.76,WNW,283,3.0,4.0,48,0.00,,,0.00,772.59,Custom,2013-06-29 16:30:00,
2013-06-29 11:35:00,83.5,60.0,29.75,North,360,0.0,7.0,45,0.00,,,0.00,771.42,Custom,2013-06-29 16:35:00,
2013-06-29 11:40:00,84.7,60.0,29.75,West,278,0.0,2.0,43,0.00,,,0.00,783.12,Custom,2013-06-29 16:40:00,
2013-06-29 11:45:00,83.8,58.0,29.76,WNW,293,4.0,8.0,42,0.00,,,0.00,785.46,Custom,2013-06-29 16:45:00,
2013-06-29 11:50:00,83.9,60.0,29.76,North,350,0.0,6.0,44,0.00,,,0.00,786.63,Custom,2013-06-29 16:50:00,
2013-06-29 11:55:00,83.5,60.0,29.76,North,360,7.0,8.0,44,0.00,,,0.00,782.34,Custom,2013-06-29 16:55:00,
2013-06-29 12:00:00,82.7,59.0,29.76,NNE,17,4.0,12.0,45,0.00,,,0.00,780.78,Custom,2013-06-29 17:00:00,
2013-06-29 12:05:00,83.1,58.0,29.75,West,273,0.0,6.0,43,0.00,,,0.00,779.22,Custom,2013-06-29 17:05:00,
2013-06-29 12:10:00,84.2,59.0,29.75,North,0,0.0,6.0,43,0.00,,,0.00,776.49,Custom,2013-06-29 17:10:00,
2013-06-29 12:15:00,84.4,62.0,29.76,North,351,0.0,6.0,47,0.00,,,0.00,775.71,Custom,2013-06-29 17:15:00,
2013-06-29 12:20:00,84.4,60.0,29.75,North,0,0.0,6.0,44,0.00,,,0.00,755.04,Custom,2013-06-29 17:20:00,
2013-06-29 12:25:00,84.4,60.0,29.76,North,3,0.0,6.0,45,0.00,,,0.00,746.46,Custom,2013-06-29 17:25:00,
2013-06-29 12:30:00,84.6,60.0,29.75,NNW,345,0.0,6.0,44,0.00,,,0.00,755.43,Custom,2013-06-29 17:30:00,
2013-06-29 12:35:00,83.3,58.0,29.75,NNW,335,3.0,14.0,43,0.00,,,0.00,754.65,Custom,2013-06-29 17:35:00,
2013-06-29 12:40:00,83.8,59.0,29.75,North,0,0.0,6.0,44,0.00,,,0.00,747.63,Custom,2013-06-29 17:40:00,
2013-06-29 12:45:00,83.8,58.0,29.74,West,272,2.0,6.0,41,0.00,,,0.00,749.19,Custom,2013-06-29 17:45:00,
2013-06-29 12:50:00,85.5,58.0,29.75,North,357,0.0,5.0,40,0.00,,,0.00,741.78,Custom,2013-06-29 17:50:00,
2013-06-29 12:55:00,84.8,59.0,29.74,WSW,252,3.0,5.0,42,0.00,,,0.00,746.07,Custom,2013-06-29 17:55:00,
2013-06-29 13:00:00,84.3,62.0,29.74,WNW,285,2.0,4.0,46,0.00,,,0.00,744.9,Custom,2013-06-29 18:00:00,
2013-06-29 13:05:00,84.2,57.0,29.74,WNW,301,0.0,7.0,40,0.00,,,0.00,734.76,Custom,2013-06-29 18:05:00,
2013-06-29 13:10:00,84.8,59.0,29.74,NNW,348,0.0,8.0,42,0.00,,,0.00,737.49,Custom,2013-06-29 18:10:00,
2013-06-29 13:15:00,84.6,59.0,29.73,WNW,291,0.0,8.0,42,0.00,,,0.00,728.52,Custom,2013-06-29 18:15:00,
2013-06-29 13:20:00,83.3,59.0,29.73,WNW,284,0.0,5.0,44,0.00,,,0.00,738.27,Custom,2013-06-29 18:20:00,
2013-06-29 13:25:00,84.4,59.0,29.73,North,360,2.0,8.0,42,0.00,,,0.00,739.05,Custom,2013-06-29 18:25:00,
2013-06-29 13:30:00,84.8,58.0,29.73,WNW,285,3.0,7.0,40,0.00,,,0.00,739.83,Custom,2013-06-29 18:30:00,
2013-06-29 13:35:00,84.8,62.0,29.73,NNW,335,0.0,7.0,46,0.00,,,0.00,731.64,Custom,2013-06-29 18:35:00,
2013-06-29 13:40:00,84.7,57.0,29.73,NNW,339,0.0,9.0,39,0.00,,,0.00,705.51,Custom,2013-06-29 18:40:00,
2013-06-29 13:45:00,84.6,58.0,29.73,WNW,282,0.0,8.0,40,0.00,,,0.00,721.89,Custom,2013-06-29 18:45:00,
2013-06-29 13:50:00,85.0,58.0,29.73,WNW,294,3.0,9.0,40,0.00,,,0.00,737.1,Custom,2013-06-29 18:50:00,
2013-06-29 13:55:00,85.3,59.0,29.73,North,0,6.0,9.0,42,0.00,,,0.00,733.59,Custom,2013-06-29 18:55:00,
2013-06-29 14:00:00,84.6,57.0,29.72,NW,307,0.0,8.0,39,0.00,,,0.00,732.81,Custom,2013-06-29 19:00:00,
2013-06-29 14:05:00,85.1,58.0,29.72,NW,315,7.0,8.0,39,0.00,,,0.00,735.93,Custom,2013-06-29 19:05:00,
2013-06-29 14:10:00,84.6,57.0,29.72,NE,44,0.0,10.0,39,0.00,,,0.00,730.47,Custom,2013-06-29 19:10:00,
2013-06-29 14:15:00,84.2,57.0,29.72,North,0,0.0,14.0,40,0.00,,,0.00,207.48,Custom,2013-06-29 19:15:00,
2013-06-29 14:20:00,85.3,61.0,29.72,North,6,0.0,7.0,44,0.00,,,0.00,738.27,Custom,2013-06-29 19:20:00,
2013-06-29 14:25:00,85.3,59.0,29.72,WNW,295,0.0,6.0,41,0.00,,,0.00,735.54,Custom,2013-06-29 19:25:00,
2013-06-29 14:30:00,86.4,60.0,29.72,West,274,0.0,6.0,41,0.00,,,0.00,739.05,Custom,2013-06-29 19:30:00,
2013-06-29 14:35:00,85.4,58.0,29.72,NNW,347,0.0,11.0,40,0.00,,,0.00,737.88,Custom,2013-06-29 19:35:00,
2013-06-29 14:40:00,85.6,58.0,29.72,WNW,293,0.0,13.0,39,0.00,,,0.00,740.22,Custom,2013-06-29 19:40:00,
2013-06-29 14:45:00,84.2,59.0,29.72,WNW,301,0.0,14.0,43,0.00,,,0.00,737.88,Custom,2013-06-29 19:45:00,
2013-06-29 14:50:00,85.8,61.0,29.72,North,10,2.0,9.0,44,0.00,,,0.00,744.12,Custom,2013-06-29 19:50:00,
2013-06-29 14:55:00,85.6,60.0,29.72,West,281,1.0,5.0,42,0.00,,,0.00,744.12,Custom,2013-06-29 19:55:00,
2013-06-29 15:00:00,85.6,59.0,29.72,WNW,282,2.0,4.0,41,0.00,,,0.00,730.86,Custom,2013-06-29 20:00:00,
2013-06-29 15:05:00,84.8,59.0,29.72,North,0,4.0,9.0,42,0.00,,,0.00,705.12,Custom,2013-06-29 20:05:00,
2013-06-29 15:10:00,84.2,58.0,29.72,NNE,24,0.0,6.0,42,0.00,,,0.00,649.35,Custom,2013-06-29 20:10:00,
2013-06-29 15:15:00,83.7,58.0,29.72,NNW,335,0.0,5.0,41,0.00,,,0.00,230.49,Custom,2013-06-29 20:15:00,
2013-06-29 15:20:00,85.2,61.0,29.72,North,360,0.0,6.0,45,0.00,,,0.00,705.12,Custom,2013-06-29 20:20:00,
2013-06-29 15:25:00,85.6,60.0,29.72,WNW,282,0.0,10.0,42,0.00,,,0.00,765.96,Custom,2013-06-29 20:25:00,
2013-06-29 15:30:00,86.1,61.0,29.72,WNW,283,0.0,6.0,42,0.00,,,0.00,786.63,Custom,2013-06-29 20:30:00,
2013-06-29 15:35:00,85.9,61.0,29.72,NNW,332,0.0,6.0,44,0.00,,,0.00,780.39,Custom,2013-06-29 20:35:00,
2013-06-29 15:40:00,86.5,59.0,29.72,North,349,12.0,12.0,39,0.00,,,0.00,782.73,Custom,2013-06-29 20:40:00,
2013-06-29 15:45:00,85.9,57.0,29.71,North,5,0.0,11.0,38,0.00,,,0.00,783.12,Custom,2013-06-29 20:45:00,
2013-06-29 15:50:00,86.1,61.0,29.72,NNW,330,0.0,6.0,43,0.00,,,0.00,789.75,Custom,2013-06-29 20:50:00,
2013-06-29 15:55:00,86.1,59.0,29.71,SSE,152,0.0,4.0,40,0.00,,,0.00,638.43,Custom,2013-06-29 20:55:00,
2013-06-29 16:00:00,84.7,59.0,29.72,ESE,111,0.0,9.0,42,0.00,,,0.00,780.39,Custom,2013-06-29 21:00:00,
2013-06-29 16:05:00,85.0,58.0,29.72,West,267,7.0,7.0,40,0.00,,,0.00,756.99,Custom,2013-06-29 21:05:00,
2013-06-29 16:10:00,85.4,59.0,29.72,WNW,299,4.0,8.0,41,0.00,,,0.00,737.88,Custom,2013-06-29 21:10:00,
2013-06-29 16:15:00,84.4,59.0,29.72,NNE,14,0.0,7.0,43,0.00,,,0.00,70.59,Custom,2013-06-29 21:15:00,
2013-06-29 16:20:00,85.0,61.0,29.71,NNW,345,0.0,4.0,44,0.00,,,0.00,703.56,Custom,2013-06-29 21:20:00,
2013-06-29 16:25:00,85.3,60.0,29.71,North,0,0.0,9.0,42,0.00,,,0.00,694.98,Custom,2013-06-29 21:25:00,
2013-06-29 16:30:00,84.9,59.0,29.72,NW,311,6.0,7.0,42,0.00,,,0.00,709.8,Custom,2013-06-29 21:30:00,
2013-06-29 16:35:00,84.7,58.0,29.71,North,359,0.0,14.0,41,0.00,,,0.00,267.15,Custom,2013-06-29 21:35:00,
2013-06-29 16:40:00,84.2,59.0,29.71,NNW,338,3.0,8.0,42,0.00,,,0.00,682.11,Custom,2013-06-29 21:40:00,
2013-06-29 16:45:00,83.5,59.0,29.70,North,6,5.0,7.0,44,0.00,,,0.00,651.69,Custom,2013-06-29 21:45:00,
2013-06-29 16:50:00,84.6,60.0,29.71,North,360,2.0,8.0,43,0.00,,,0.00,629.85,Custom,2013-06-29 21:50:00,
2013-06-29 16:55:00,83.8,58.0,29.71,North,355,0.0,11.0,42,0.00,,,0.00,194.22,Custom,2013-06-29 21:55:00,
2013-06-29 17:00:00,84.6,60.0,29.70,WNW,289,2.0,6.0,44,0.00,,,0.00,698.88,Custom,2013-06-29 22:00:00,
2013-06-29 17:05:00,84.3,58.0,29.71,WNW,300,0.0,11.0,42,0.00,,,0.00,679.38,Custom,2013-06-29 22:05:00,
2013-06-29 17:10:00,84.4,58.0,29.71,WNW,302,0.0,5.0,41,0.00,,,0.00,530.79,Custom,2013-06-29 22:10:00,
2013-06-29 17:15:00,84.3,60.0,29.71,WSW,247,0.0,3.0,43,0.00,,,0.00,193.83,Custom,2013-06-29 22:15:00,
2013-06-29 17:20:00,84.9,61.0,29.71,NNW,337,0.0,2.0,44,0.00,,,0.00,607.62,Custom,2013-06-29 22:20:00,
2013-06-29 17:25:00,83.8,58.0,29.71,North,349,1.0,5.0,42,0.00,,,0.00,614.25,Custom,2013-06-29 22:25:00,
2013-06-29 17:30:00,82.5,58.0,29.71,North,350,5.0,5.0,43,0.00,,,0.00,216.06,Custom,2013-06-29 22:30:00,
2013-06-29 17:35:00,81.7,58.0,29.71,North,4,2.0,10.0,44,0.00,,,0.00,232.83,Custom,2013-06-29 22:35:00,
2013-06-29 17:40:00,81.9,59.0,29.71,NNW,338,2.0,3.0,46,0.00,,,0.00,304.59,Custom,2013-06-29 22:40:00,
2013-06-29 17:45:00,81.9,59.0,29.71,NNE,18,0.0,6.0,46,0.00,,,0.00,205.14,Custom,2013-06-29 22:45:00,
2013-06-29 17:50:00,81.4,59.0,29.71,NNW,330,0.0,13.0,47,0.00,,,0.00,183.69,Custom,2013-06-29 22:50:00,
2013-06-29 17:55:00,81.0,59.0,29.71,North,359,0.0,11.0,47,0.00,,,0.00,144.3,Custom,2013-06-29 22:55:00,
2013-06-29 18:00:00,80.3,59.0,29.72,NW,308,4.0,12.0,48,0.00,,,0.00,159.51,Custom,2013-06-29 23:00:00,
2013-06-29 18:05:00,80.2,58.0,29.72,North,3,0.0,9.0,47,0.00,,,0.00,145.86,Custom,2013-06-29 23:05:00,
2013-06-29 18:10:00,79.5,59.0,29.71,North,360,1.0,11.0,50,0.00,,,0.00,92.43,Custom,2013-06-29 23:10:00,
2013-06-29 18:15:00,79.3,60.0,29.72,NE,43,0.0,7.0,51,0.00,,,0.00,82.68,Custom,2013-06-29 23:15:00,
2013-06-29 18:20:00,79.0,59.0,29.72,North,3,0.0,9.0,50,0.00,,,0.00,78.39,Custom,2013-06-29 23:20:00,
2013-06-29 18:25:00,78.5,59.0,29.72,ESE,104,2.0,6.0,52,0.00,,,0.00,77.22,Custom,2013-06-29 23:25:00,
2013-06-29 18:30:00,78.0,59.0,29.72,North,0,3.0,8.0,53,0.00,,,0.00,94.77,Custom,2013-06-29 23:30:00,
2013-06-29 18:35:00,78.3,60.0,29.72,North,349,0.0,8.0,53,0.00,,,0.00,136.11,Custom,2013-06-29 23:35:00,
2013-06-29 18:40:00,78.5,60.0,29.72,North,0,0.0,8.0,53,0.00,,,0.00,143.91,Custom,2013-06-29 23:40:00,
2013-06-29 18:45:00,78.4,60.0,29.72,NW,307,0.0,8.0,53,0.00,,,0.00,120.51,Custom,2013-06-29 23:45:00,
2013-06-29 18:50:00,77.9,60.0,29.72,North,11,0.0,7.0,54,0.00,,,0.00,118.95,Custom,2013-06-29 23:50:00,
2013-06-29 18:55:00,77.8,61.0,29.72,NNE,33,2.0,10.0,56,0.00,,,0.00,93.21,Custom,2013-06-29 23:55:00,
2013-06-29 19:00:00,77.7,61.0,29.72,NNE,17,4.0,7.0,56,0.00,,,0.00,99.84,Custom,2013-06-30 00:00:00,
2013-06-29 19:05:00,77.7,61.0,29.72,NW,306,0.0,6.0,56,0.00,,,0.00,83.46,Custom,2013-06-30 00:05:00,
2013-06-29 19:10:00,77.4,60.0,29.72,NE,50,7.0,7.0,55,0.00,,,0.00,68.25,Custom,2013-06-30 00:10:00,
2013-06-29 19:15:00,77.6,60.0,29.72,NW,324,0.0,7.0,56,0.00,,,0.00,81.51,Custom,2013-06-30 00:15:00,
2013-06-29 19:20:00,77.6,60.0,29.72,NNW,346,0.0,6.0,54,0.00,,,0.00,59.67,Custom,2013-06-30 00:20:00,
2013-06-29 19:25:00,77.2,60.0,29.72,North,0,12.0,12.0,55,0.00,,,0.00,73.71,Custom,2013-06-30 00:25:00,
2013-06-29 19:30:00,76.9,59.0,29.72,NNW,327,7.0,11.0,54,0.00,,,0.00,67.08,Custom,2013-06-30 00:30:00,
2013-06-29 19:35:00,76.8,59.0,29.72,North,0,2.0,7.0,55,0.00,,,0.00,58.89,Custom,2013-06-30 00:35:00,
2013-06-29 19:40:00,76.7,59.0,29.72,NW,309,0.0,9.0,55,0.00,,,0.00,49.92,Custom,2013-06-30 00:40:00,
2013-06-29 19:45:00,76.5,60.0,29.72,North,360,0.0,8.0,57,0.00,,,0.00,33.15,Custom,2013-06-30 00:45:00,
2013-06-29 19:50:00,76.1,59.0,29.72,North,0,2.0,7.0,56,0.00,,,0.00,26.52,Custom,2013-06-30 00:50:00,
2013-06-29 19:55:00,75.8,59.0,29.73,NNW,341,1.0,9.0,57,0.00,,,0.00,23.01,Custom,2013-06-30 00:55:00,
2013-06-29 20:00:00,75.5,60.0,29.73,North,352,3.0,9.0,58,0.00,,,0.00,19.5,Custom,2013-06-30 01:00:00,
2013-06-29 20:05:00,75.4,60.0,29.73,NNW,329,0.0,8.0,59,0.00,,,0.00,14.82,Custom,2013-06-30 01:05:00,
2013-06-29 20:10:00,75.0,60.0,29.74,North,10,0.0,7.0,60,0.00,,,0.00,14.82,Custom,2013-06-30 01:10:00,
2013-06-29 20:15:00,74.7,60.0,29.74,South,179,0.0,11.0,60,0.00,,,0.00,9.36,Custom,2013-06-30 01:15:00,
2013-06-29 20:20:00,74.2,59.0,29.73,North,360,7.0,7.0,59,0.00,,,0.00,7.8,Custom,2013-06-30 01:20:00,
2013-06-29 20:25:00,74.2,59.0,29.74,North,360,8.0,10.0,60,0.00,,,0.00,0,Custom,2013-06-30 01:25:00,
2013-06-29 20:30:00,74.0,60.0,29.74,NNW,348,2.0,18.0,61,0.00,,,0.00,7.8,Custom,2013-06-30 01:30:00,
2013-06-29 20:35:00,74.0,60.0,29.73,North,3,0.0,7.0,62,0.00,,,0.00,9.36,Custom,2013-06-30 01:35:00,
2013-06-29 20:40:00,73.8,60.0,29.73,North,360,1.0,9.0,62,0.00,,,0.00,0,Custom,2013-06-30 01:40:00,
2013-06-29 20:45:00,73.5,59.0,29.74,North,352,4.0,8.0,61,0.00,,,0.00,0,Custom,2013-06-30 01:45:00,
2013-06-29 20:50:00,72.9,58.0,29.73,NNE,17,0.0,4.0,61,0.00,,,0.00,0,Custom,2013-06-30 01:50:00,
2013-06-29 20:55:00,72.9,59.0,29.74,North,1,0.0,6.0,62,0.00,,,0.00,0,Custom,2013-06-30 01:55:00,
2013-06-29 21:00:00,72.7,59.0,29.74,NW,314,3.0,6.0,62,0.00,,,0.00,0,Custom,2013-06-30 02:00:00,
2013-06-29 21:05:00,72.7,59.0,29.74,NNE,31,0.0,6.0,63,0.00,,,0.00,0,Custom,2013-06-30 02:05:00,
2013-06-29 21:10:00,72.7,59.0,29.75,NNE,28,0.0,3.0,63,0.00,,,0.00,0,Custom,2013-06-30 02:10:00,
2013-06-29 21:15:00,72.6,59.0,29.75,North,1,0.0,5.0,63,0.00,,,0.00,0,Custom,2013-06-30 02:15:00,
2013-06-29 21:20:00,72.7,60.0,29.75,North,0,0.0,5.0,64,0.00,,,0.00,0,Custom,2013-06-30 02:20:00,
2013-06-29 21:25:00,72.8,60.0,29.75,NNE,16,0.0,5.0,64,0.00,,,0.00,0,Custom,2013-06-30 02:25:00,
2013-06-29 21:30:00,72.5,60.0,29.76,North,5,0.0,3.0,64,0.00,,,0.00,0,Custom,2013-06-30 02:30:00,
2013-06-29 21:35:00,72.4,60.0,29.76,North,5,0.0,1.0,65,0.00,,,0.00,0,Custom,2013-06-30 02:35:00,
2013-06-29 21:40:00,72.2,60.0,29.76,North,0,0.0,6.0,65,0.00,,,0.00,0,Custom,2013-06-30 02:40:00,
2013-06-29 21:45:00,72.2,60.0,29.76,North,0,0.0,5.0,65,0.00,,,0.00,0,Custom,2013-06-30 02:45:00,
2013-06-29 21:50:00,71.9,60.0,29.76,North,0,0.0,2.0,66,0.00,,,0.00,0,Custom,2013-06-30 02:50:00,
2013-06-29 21:55:00,71.9,60.0,29.76,North,358,0.0,9.0,66,0.00,,,0.00,0,Custom,2013-06-30 02:55:00,
2013-06-29 22:00:00,71.6,60.0,29.76,North,354,0.0,4.0,66,0.00,,,0.00,0,Custom,2013-06-30 03:00:00,
2013-06-29 22:05:00,71.6,60.0,29.76,North,6,0.0,5.0,66,0.00,,,0.00,0,Custom,2013-06-30 03:05:00,
2013-06-29 22:10:00,71.3,60.0,29.77,North,357,1.0,3.0,67,0.00,,,0.00,0,Custom,2013-06-30 03:10:00,
2013-06-29 22:15:00,71.2,60.0,29.77,North,0,0.0,3.0,67,0.00,,,0.00,0,Custom,2013-06-30 03:15:00,
2013-06-29 22:20:00,70.7,60.0,29.77,North,0,0.0,0.0,68,0.00,,,0.00,0,Custom,2013-06-30 03:20:00,
2013-06-29 22:25:00,70.4,59.0,29.77,North,0,0.0,1.0,68,0.00,,,0.00,0,Custom,2013-06-30 03:25:00,
2013-06-29 22:30:00,70.1,60.0,29.77,North,0,0.0,0.0,69,0.00,,,0.00,0,Custom,2013-06-30 03:30:00,
2013-06-29 22:35:00,70.0,60.0,29.76,NNE,27,0.0,0.0,70,0.00,,,0.00,0,Custom,2013-06-30 03:35:00,
2013-06-29 22:40:00,69.9,60.0,29.77,NNE,18,0.0,0.0,70,0.00,,,0.00,0,Custom,2013-06-30 03:40:00,
2013-06-29 22:45:00,69.8,60.0,29.76,NNE,18,0.0,2.0,70,0.00,,,0.00,0,Custom,2013-06-30 03:45:00,
2013-06-29 22:51:00,69.8,60.0,29.76,North,360,0.0,4.0,71,0.00,,,0.00,0,Custom,2013-06-30 03:51:00,
2013-06-29 22:56:00,69.5,60.0,29.76,North,360,0.0,1.0,71,0.00,,,0.00,0,Custom,2013-06-30 03:56:00,
2013-06-29 23:01:00,69.2,60.0,29.76,North,359,0.0,3.0,72,0.00,,,0.00,0,Custom,2013-06-30 04:01:00,
2013-06-29 23:02:00,69.0,60.0,29.76,North,360,0.0,3.0,72,0.00,,,0.00,0,Custom,2013-06-30 04:02:00,
2013-06-29 23:03:00,69.0,60.0,29.76,North,360,0.0,3.0,72,0.00,,,0.00,0,Custom,2013-06-30 04:03:00,
2013-06-29 23:07:00,69.0,60.0,29.76,North,0,0.0,3.0,73,0.00,,,0.00,0,Custom,2013-06-30 04:07:00,
2013-06-29 23:12:00,69.0,60.0,29.76,West,271,0.0,1.0,73,0.00,,,0.00,0,Custom,2013-06-30 04:12:00,
2013-06-29 23:17:00,68.5,60.0,29.76,West,271,0.0,0.0,74,0.00,,,0.00,0,Custom,2013-06-30 04:17:00,
2013-06-29 23:22:00,68.4,60.0,29.76,North,0,0.0,3.0,74,0.00,,,0.00,0,Custom,2013-06-30 04:22:00,
2013-06-29 23:27:00,68.0,60.0,29.76,North,0,0.0,0.0,75,0.00,,,0.00,0,Custom,2013-06-30 04:27:00,
2013-06-29 23:32:00,67.6,60.0,29.76,North,0,0.0,0.0,75,0.00,,,0.00,0,Custom,2013-06-30 04:32:00,
2013-06-29 23:37:00,67.4,60.0,29.76,North,0,0.0,0.0,76,0.00,,,0.00,0,Custom,2013-06-30 04:37:00,
2013-06-29 23:42:00,67.2,60.0,29.76,North,0,0.0,0.0,77,0.00,,,0.00,0,Custom,2013-06-30 04:42:00,
2013-06-29 23:47:00,67.3,60.0,29.76,North,0,0.0,0.0,77,0.00,,,0.00,0,Custom,2013-06-30 04:47:00,
2013-06-29 23:52:00,67.5,60.0,29.77,North,359,0.0,2.0,77,0.00,,,0.00,0,Custom,2013-06-30 04:52:00,
2013-06-29 23:57:00,67.4,60.0,29.76,North,353,0.0,2.0,77,0.00,,,0.00,0,Custom,2013-06-30 04:57:00,